TimeCST,TemperatureF,Dew PointF,Humidity,Sea Level PressureIn,VisibilityMPH,Wind Direction,Wind SpeedMPH,Gust SpeedMPH,PrecipitationIn,Events,Conditions,WindDirDegrees,DateUTC
12:00 AM,76,75,95,29.95,5,NNW,5.8,,,Rain,Light Rain,340,2011-10-04 06:00:00
12:00 AM,77.0,75.2,94,29.95,5.0,NNW,5.8,-,N/A,Rain,Rain,340,2011-10-04 06:00:00
3:00 AM,75,75,99,29.93,6,Calm,Calm,,,Rain,Light Rain,,2011-10-04 09:00:00
3:00 AM,75.2,75.2,100,29.92,5.6,Calm,Calm,-,N/A,Rain,Light Rain,0,2011-10-04 09:00:00
6:00 AM,75,74,98,29.97,12,Calm,Calm,,,Rain,Light Rain,,2011-10-04 12:00:00
6:00 AM,75.2,75.2,100,29.95,6.2,Calm,Calm,-,N/A,,Mostly Cloudy,0,2011-10-04 12:00:00
7:00 AM,75.2,75.2,100,29.98,6.2,NNW,4.6,-,N/A,,Mostly Cloudy,340,2011-10-04 13:00:00
8:00 AM,78.8,75.2,89,30.01,6.2,North,3.5,-,N/A,,Mostly Cloudy,350,2011-10-04 14:00:00
9:00 AM,78.8,77.0,94,30.02,6.2,North,6.9,-,N/A,,Mostly Cloudy,360,2011-10-04 15:00:00
10:00 AM,80.6,77.0,89,30.02,6.2,North,6.9,-,N/A,,Mostly Cloudy,360,2011-10-04 16:00:00
11:00 AM,84.2,75.2,74,30.00,6.2,NNE,9.2,-,N/A,,Mostly Cloudy,20,2011-10-04 17:00:00
12:00 PM,85,75,65,29.97,12,NE,6.9,,,,,50,2011-10-04 18:00:00
12:00 PM,84.2,75.2,74,29.96,6.2,NE,6.9,-,N/A,,Mostly Cloudy,50,2011-10-04 18:00:00
1:00 PM,84.2,75.2,74,29.93,6.2,ENE,6.9,-,N/A,,Mostly Cloudy,60,2011-10-04 19:00:00
2:00 PM,84.2,77.0,79,29.89,6.2,ENE,10.4,-,N/A,,Scattered Clouds,60,2011-10-04 20:00:00
3:00 PM,84,77,73,29.88,12,ENE,10.4,,,,Scattered Clouds,60,2011-10-04 21:00:00
3:00 PM,84.2,77.0,79,29.88,6.2,ENE,10.4,-,N/A,,Scattered Clouds,60,2011-10-04 21:00:00
4:00 PM,84.2,77.0,79,29.88,6.2,ENE,11.5,-,N/A,,Scattered Clouds,60,2011-10-04 22:00:00
5:00 PM,84.2,77.0,79,29.89,6.2,NE,13.8,-,N/A,,Mostly Cloudy,50,2011-10-04 23:00:00
6:00 PM,83,74,68,29.93,12,ENE,11.5,,,,,60,2011-10-05 00:00:00
6:00 PM,84.2,73.4,70,29.92,6.2,ENE,11.5,-,N/A,,Mostly Cloudy,60,2011-10-05 00:00:00
9:00 PM,83,76,74,29.97,12,ENE,15.0,,,,Partly Cloudy,60,2011-10-05 03:00:00
9:00 PM,82.4,77.0,84,29.95,6.2,ENE,15.0,-,N/A,,Scattered Clouds,60,2011-10-05 03:00:00